Santiago de Cuba, Cuba

7:51 PM CDT on October 20, 2018 (GMT -0400)
Antonio Maceo International

Weather History for MUCU - April, 2018

Change the Weather History Date:

Monday, April 16, 2018

  Actual Average Record
Temperature  
Mean Temperature 78 °F -  
Max Temperature 86 °F 83 °F 86 °F (2004)
Min Temperature 71 °F 71 °F 68 °F (1998)
Cooling Degree Days 14    
Growing Degree Days 28 (Base 50)    
Moisture  
Dew Point 67 °F    
Average Humidity 72    
Maximum Humidity 83    
Minimum Humidity 55    
Precipitation  
Precipitation 0.00 in - - ()
Sea Level Pressure  
Sea Level Pressure 30.05 in    
Wind  
Wind Speed 6 mph ()    
Max Wind Speed 13 mph    
Max Gust Speed -    
Visibility 5.4 miles    
Events Rain    
Averages and records for this station are not official NWS values.
T = Trace of Precipitation, MM = Missing Value Source: Averaged Metar Reports

Daily Weather History Graph

Daily Weather History Graph

Search for Another Location

Airport or City:

Astronomy

Apr. 16, 2018 Rise Set
Actual Time 6:44 AM CDT 7:21 PM CDT
Civil Twilight 6:22 AM CDT 7:44 PM CDT
Nautical Twilight 5:55 AM CDT 8:10 PM CDT
Astronomical Twilight 5:29 AM CDT 8:37 PM CDT
Moon 7:19 AM CDT (4/16) 8:09 PM CDT (4/16)
Length of Visible Light 13h 22m
Length of Day
12h 37m
New Moon, 0% of the Moon is Illuminated
Apr 16
New Moon
Apr 22
First Quarter
Apr 29
Full
May 7
Last Quarter
May 15
New

Hourly Weather History & Observations

Time (CDT) Temp. Heat Index Dew Point Humidity Pressure Visibility Wind Dir Wind Speed Gust Speed Precip Events Conditions
12:50 AM 73.4 °F - 66.2 °F 78% 30.06 in 5.6 mi East 5.8 mph - N/A   Partly Cloudy
1:50 AM 71.6 °F - 66.2 °F 83% 30.06 in 5.6 mi NE 4.6 mph - N/A   Partly Cloudy
2:00 AM 72 °F - 65 °F 74% 30.09 in 6 mi NE 4.5 mph - -   Haze
2:50 AM 71.6 °F - 64.4 °F 78% 30.06 in 5.6 mi ENE 3.5 mph - N/A   Partly Cloudy
3:50 AM 71.6 °F - 66.2 °F 83% 30.04 in 5.6 mi North 4.6 mph - N/A   Partly Cloudy
4:50 AM 71.6 °F - 66.2 °F 83% 30.04 in 5.6 mi NNE 3.5 mph - N/A   Partly Cloudy
5:50 AM 71.6 °F - 66.2 °F 83% 30.04 in 5.6 mi North 4.6 mph - N/A   Partly Cloudy
6:50 AM 71.6 °F - 66.2 °F 83% 30.06 in 5.6 mi North 4.6 mph - N/A   Partly Cloudy
7:50 AM 75.2 °F - 68.0 °F 78% 30.06 in 5.6 mi North 3.5 mph - N/A   Partly Cloudy
8:50 AM 82.4 °F 85.4 °F 68.0 °F 62% 30.09 in 5.6 mi Variable 2.3 mph - N/A   Partly Cloudy
9:50 AM 82.4 °F 85.4 °F 68.0 °F 62% 30.09 in 5.6 mi SSW 5.8 mph - N/A   Scattered Clouds
10:50 AM 82.4 °F 85.4 °F 68.0 °F 62% 30.09 in 5.6 mi SSW 8.1 mph - N/A   Scattered Clouds
11:50 AM 84.2 °F 87.3 °F 68.0 °F 58% 30.09 in 5.6 mi SSW 8.1 mph - N/A   Scattered Clouds
12:52 PM 84.2 °F 87.3 °F 68.0 °F 58% 30.06 in 5.6 mi SW 9.2 mph - N/A   Scattered Clouds
1:52 PM 86.0 °F 89.4 °F 68.0 °F 55% 30.04 in 5.6 mi SW 11.5 mph - N/A   Scattered Clouds
2:52 PM 86.0 °F 89.4 °F 68.0 °F 55% 30.01 in 5.6 mi SW 11.5 mph - N/A   Scattered Clouds
3:51 PM 86.0 °F 89.4 °F 68.0 °F 55% 29.98 in 5.6 mi SW 12.7 mph - N/A   Scattered Clouds
4:50 PM 84.2 °F 87.3 °F 68.0 °F 58% 29.98 in 5.6 mi SW 11.5 mph - N/A   Scattered Clouds
5:52 PM 82.4 °F 85.4 °F 68.0 °F 62% 29.98 in 5.6 mi SW 10.4 mph - N/A   Scattered Clouds
6:53 PM 80.6 °F 83.2 °F 68.0 °F 65% - 5.6 mi WSW 5.8 mph - N/A   Scattered Clouds
7:05 PM 80.6 °F 83.2 °F 68.0 °F 65% 30.04 in 3.1 mi West 8.1 mph - N/A Rain Rain
7:52 PM 73.4 °F - 68.0 °F 83% - 3.1 mi NNW 5.8 mph - N/A Rain Rain
8:00 PM 74 °F - 68 °F 76% 30.04 in - North 4.5 mph - - Rain Rain
8:50 PM 73.4 °F - 68.0 °F 83% 30.04 in 5.0 mi North 6.9 mph - N/A Rain Light Rain
9:51 PM 73.4 °F - 68.0 °F 83% 30.06 in 5.6 mi North 9.2 mph - N/A   Mostly Cloudy
10:51 PM 71.6 °F - 66.2 °F 83% 30.06 in 5.6 mi North 9.2 mph - N/A   Scattered Clouds
11:50 PM 71.6 °F - 66.2 °F 83% 30.06 in 5.6 mi NNE 6.9 mph - N/A   Scattered Clouds